Regional Weather Roundup
Issued by NWS Newport/Morehead, NC

Current Version | Previous Version | Text Only | Print | Product List | Glossary Off
Versions: 1 2 3 4 5 6 7 8 9 10 11 12 13 14 15 16 17 18 19 20 21 22 23 24 25 26 27 28 29 30 31 32 33 34 35 36 37 38 39 40 41 42 43 44 45 46 47 48 49 50
000 ASUS42 KMHX 060313 RWRMHX WEATHER ROUNDUP FOR EASTERN NORTH CAROLINA NATIONAL WEATHER SERVICE NEWPORT/MOREHEAD CITY NC 1100 PM EDT THU MAY 05 2016 NOTE: "FAIR" INDICATES FEW OR NO CLOUDS BELOW 12,000 FEET WITH NO SIGNIFICANT WEATHER AND/OR OBSTRUCTIONS TO VISIBILITY NCZ015>017-031-032-045>047-102-103-060400- NORTH COAST CITY SKY/WX TMP DP RH WIND PRES REMARKS EDENTON CLOUDY 52 52 100 CALM 29.64R ELIZABETH CITY LGT RAIN 51 49 92 N16 29.61F KITTY HAWK LGT RAIN 50 49 97 N9G16 29.61S MANTEO CLOUDY 50 50 100 NE14G22 29.62S $$ NCZ045>047-081-094-103-104-060400- CENTRAL COAST CITY SKY/WX TMP DP RH WIND PRES REMARKS FRISCO CLOUDY 54 50 86 N9G21 29.61R SWANQUARTER NOT AVBL $$ NCZ095-097-098-100-101-060400- SOUTHERN COAST CITY SKY/WX TMP DP RH WIND PRES REMARKS BEAUFORT CLOUDY 55 53 93 N6 29.65R CEDAR ISLAND NOT AVBL JACKSONVILLE CLOUDY 55 52 89 NW7 29.65S PINEY ISLAND CLOUDY N/A N/A N/A N7 29.64R WILMINGTON CLEAR 55 47 74 NW13 29.68R $$ NCZ011>013-027>030-043-044-078>080-089-090>093-098-060400- COASTAL PLAIN CITY SKY/WX TMP DP RH WIND PRES REMARKS AHOSKIE LGT RAIN 51 49 94 CALM 29.65R CLINTON MOCLDY 51 48 89 W5 29.68S ELIZABETHTOWN MOCLDY 53 47 78 NW5 29.69S GOLDSBORO NOT AVBL GREENVILLE CLOUDY 54 54 100 SE7 29.67S HAVELOCK CLOUDY 55 51 86 NW3 29.66R KENANSVILLE CLOUDY 52 48 87 W5 29.68R KINSTON CLOUDY 55 52 92 CALM 29.65R NEW BERN CLOUDY 54 52 93 CALM 29.66R RICHLANDS CLOUDY 54 53 97 CALM 29.67R ROCKY MOUNT RAIN 52 51 97 NE5 29.65R FOG WASHINGTON CLOUDY 52 49 91 E5 29.64S WHITEVILLE NOT AVBL $$ AMZ130-135-150-152-154-156-158-170-250-252-270-ANZ085-086-088-633-658-670-060400- MARINE OBSERVATIONS STATION/POSITION TIME TEMP WIND PRES WAVE SWELL AIR SEA DIR/SP/G HT/PER HT/PER (UTC) (F) (DEG/KT/KT) (MB) (FT/S) (FT/S) CHESAPEAKE LIGHT 0300 50 30/ 25/ 27 1002.9 64 E VA BEACH 0250 49 51 340/ 21/ 25 1001.3 8/ 7 3/ 8 DUCK 0200 1002.5 2 E DUCK 0211 59 N/A 6/ 8 OREGON INLET 0200 1002.5 13E OREGON INLT 0300 56 N/A 8/ 6 7/ 6 HATTERAS CG 0200 1001.8 DIAMOND BUOY 0250 55 76 360/ 17/ 21 1002.5 5/ 8 2/ 8 CAPE LOOKOUT 0300 56 350/ 9/ 12 1003.5 BEAUFORT LAB 0200 1002.7 30 SE NEW RVR IN 0225 73 N/A 5/ 4 27 SE WRIGHTSVLE 0208 62 72 310/ 14/ 19 1004.0 5 SE WRIGHTSVLE 0208 60 69 310/ 12/ 17 1004.8 225 S CAPE HAT 0250 71 74 260/ 19/ 23 1005.2 10/ 8 41 SE CHARLESTON 0250 65 73 310/ 23/ 27 1005.8 6/ 6 2/11 $$

USA.gov is the U.S. government's official web portal to all federal, state and local government web resources and services.